Retour au catalogue

PELICAN-9 3010

ActifCommunicationsSSO
NORAD 69019·PAYLOAD·🇺🇸 United States

Lancé May 3, 2026 depuis Vandenberg Space Force Base

Loading…

Prochains Passages (prochaines 24 heures)

TLE

FraisSource: CelesTrak SupGP

Époque: Sep 15, 2026, 02:44 UTC

1 69019C 26100U   26258.11440972  .00010842  00000+0  41094-3 0  2588
2 69019  97.2628 153.9976 0003570 106.9000 240.1517 15.26940956    10

Suivez PELICAN-9 3010 en temps réel avec AllMySat

Download on the App Store